NUSAT-3 (MILANESAT)

Last updated on Mon Jun 23 2025 00:02:28 GMT+0000 (Coordinated Universal Time)

1 42760U 17034C 25173.26452699 .06404055 92296-5 76368-3 0 9995 2 42760 42.9738 198.3940 0002330 46.3341 313.7743 16.35513327445149

Satellite not in orbit